XW-2D (40907 NORAD) Tracking and Keplerian Element Data

This shows tracking and keplerian element data for the satellite.

Feedback or suggestion? Click here.




ElementValue
Catalog40907
NameXW-2D
Epoch Orbit17429
Epoch Day318.70479818
Epoch Year2018
RAAN319.1714
Inclination97.4612
Eccentricity0.0012901
Argument of Perigee222.0524
Mean Anonmoly248.1053
Mean Motion15.15558437
Decay Rate4.77E-06
L11 40907U 15049J 18318.70479818 .00000477 00000-0 28579-4 0 9997
L22 40907 97.4612 319.1714 0012901 222.0524 248.1053 15.15558437174297

Live tracking and technical data element details for XW-2D (NORAD 40907). XW-2D can be tracked NOW for your location showing map with azimuth and elevation plus other details from your city location.

Track the satellite on the map from your city or location and see movement details for azimuth, elevation, latitude, longitude, range, height, and movement on the map or in text.







IsCatalogInMostPopularTable: catalog: 40907, numindb: 121
Update: records affected: 1



GetName: 40907 XW-2D

Hit Count: updated at: Fri, 16 Nov 2018 03:50:14 GMT